| time (UTC) | temp F | wind direction | speed knots | gust knots | rain 1hr in | rain 24hr in | rain mn in | humidity % | barometer mb |
| 20260902023715 | 61 | 141 | 0.0 | 0.0 | 0.00 | 0.60 | 0.60 | 94 | 1019.1 |
| 20260902021801 | 61 | 141 | 0.0 | 0.0 | 0.00 | 0.60 | 0.60 | 94 | 1019.1 |
| 20260902020800 | 61 | 141 | 0.0 | 0.0 | 0.00 | 0.60 | 0.60 | 94 | 1019.1 |
| 20260902015750 | 61 | 141 | 0.0 | 0.0 | 0.00 | 0.60 | 0.60 | 94 | 1019.0 |
| 20260902014752 | 61 | 141 | 0.0 | 0.0 | 0.00 | 0.60 | 0.60 | 94 | 1019.0 |
| 20260902013751 | 61 | 141 | 0.0 | 0.0 | 0.00 | 0.60 | 0.60 | 94 | 1018.7 |
| 20260902013230 | 61 | 141 | 0.0 | 0.0 | 0.00 | 0.60 | 0.60 | 94 | 1018.7 |
| 20260902011754 | 61 | 141 | 0.0 | 0.0 | 0.00 | 0.60 | 0.60 | 94 | 1018.7 |
| 20260902010748 | 61 | 141 | 0.0 | 0.0 | 0.00 | 0.60 | 0.60 | 94 | 1018.9 |
| 20260902005746 | 61 | 141 | 0.0 | 0.0 | 0.00 | 0.60 | 0.60 | 94 | 1018.7 |
| 20260902004746 | 61 | 141 | 0.0 | 0.0 | 0.00 | 0.60 | 0.60 | 94 | 1018.7 |
| 20260902004232 | 62 | 141 | 0.0 | 0.0 | 0.00 | 0.60 | 0.60 | 93 | 1018.5 |
| 20260902002732 | 62 | 141 | 0.0 | 0.0 | 0.00 | 0.60 | 0.60 | 93 | 1018.3 |
| 20260902002209 | 62 | 141 | 0.0 | 0.0 | 0.00 | 0.60 | 0.60 | 94 | 1018.3 |
| 20260902000729 | 62 | 141 | 0.0 | 0.0 | 0.00 | 0.60 | 0.60 | 94 | 1018.2 |
| 20260901235726 | 62 | 141 | 0.0 | 0.0 | 0.00 | 0.60 | 0.60 | 94 | 1018.2 |
| 20260901235202 | 62 | 141 | 0.0 | 0.0 | 0.00 | 0.60 | 0.60 | 94 | 1018.2 |
| 20260901233724 | 62 | 141 | 0.0 | 0.0 | 0.00 | 0.60 | 0.60 | 94 | 1018.3 |
| 20260901232726 | 62 | 141 | 0.0 | 0.0 | 0.00 | 0.60 | 0.60 | 94 | 1018.4 |
| 20260901231724 | 62 | 141 | 0.0 | 0.0 | 0.00 | 0.60 | 0.60 | 94 | 1018.4 |
| 20260901230725 | 62 | 141 | 0.0 | 0.0 | 0.00 | 0.60 | 0.60 | 93 | 1018.2 |
| 20260901225724 | 62 | 141 | 0.0 | 0.0 | 0.00 | 0.60 | 0.60 | 93 | 1018.1 |
| 20260901224725 | 62 | 141 | 0.0 | 0.0 | 0.00 | 0.60 | 0.60 | 93 | 1018.1 |
| 20260901223725 | 62 | 141 | 0.0 | 0.0 | 0.00 | 0.60 | 0.60 | 93 | 1018.1 |
| 20260901222723 | 62 | 141 | 0.0 | 0.0 | 0.00 | 0.60 | 0.60 | 93 | 1018.2 |
| 20260901221713 | 62 | 141 | 0.0 | 0.0 | 0.00 | 0.60 | 0.60 | 93 | 1018.2 |
| 20260901221618 | 62 | 141 | 0.0 | 0.9 | 0.00 | 0.60 | 0.60 | 93 | 1018.1 |
| 20260901215713 | 62 | 141 | 0.0 | 0.9 | 0.01 | 0.60 | 0.60 | 93 | 1018.1 |
| 20260901215045 | 63 | 106 | 0.0 | 0.0 | 0.03 | 0.60 | 0.60 | 93 | 1017.8 |
| 20260901214712 | 62 | 141 | 0.0 | 4.3 | 0.01 | 0.60 | 0.60 | 93 | 1018.1 |
| 20260901213746 | 63 | 193 | 0.0 | 0.0 | 0.02 | 0.60 | 0.60 | 93 | 1017.8 |
| 20260901212154 | 63 | 156 | 0.0 | 2.6 | 0.04 | 0.60 | 0.60 | 93 | 1017.8 |
| 20260901210713 | 63 | 161 | 0.9 | 4.3 | 0.05 | 0.60 | 0.60 | 93 | 1017.7 |
| 20260901205703 | 64 | 173 | 0.9 | 5.2 | 0.05 | 0.59 | 0.59 | 93 | 1017.5 |
| 20260901204702 | 64 | 152 | 0.9 | 7.8 | 0.06 | 0.59 | 0.59 | 93 | 1017.5 |
| 20260901203702 | 64 | 112 | 0.0 | 2.6 | 0.06 | 0.58 | 0.58 | 93 | 1017.0 |
| 20260901202704 | 64 | 127 | 0.0 | 0.0 | 0.06 | 0.57 | 0.57 | 94 | 1017.0 |
| 20260901201702 | 64 | 41 | 0.0 | 1.7 | 0.07 | 0.56 | 0.56 | 93 | 1017.0 |
| 20260901200703 | 64 | 41 | 0.9 | 5.2 | 0.08 | 0.55 | 0.55 | 94 | 1017.0 |
| 20260901195652 | 65 | 91 | 0.0 | 2.6 | 0.09 | 0.54 | 0.54 | 94 | 1017.0 |
| 20260901194652 | 65 | 46 | 0.0 | 1.7 | 0.13 | 0.53 | 0.53 | 94 | 1017.0 |
| 20260901194129 | 64 | 47 | 0.0 | 3.5 | 0.20 | 0.52 | 0.52 | 93 | 1017.0 |
| 20260901192653 | 64 | 176 | 0.0 | 3.5 | 0.23 | 0.50 | 0.51 | 93 | 1017.0 |
| 20260901191652 | 64 | 150 | 0.0 | 1.7 | 0.28 | 0.49 | 0.49 | 93 | 1017.0 |
| 20260901190650 | 64 | 93 | 0.9 | 1.7 | 0.29 | 0.47 | 0.48 | 93 | 1017.0 |
| 20260901185651 | 64 | 48 | 0.9 | 3.5 | 0.28 | 0.45 | 0.46 | 93 | 1017.0 |
| 20260901184650 | 64 | 44 | 0.9 | 4.3 | 0.23 | 0.40 | 0.40 | 93 | 1017.0 |
| 20260901183650 | 64 | 15 | 0.9 | 2.6 | 0.15 | 0.32 | 0.33 | 93 | 1017.2 |
| 20260901182648 | 64 | 39 | 0.9 | 2.6 | 0.10 | 0.27 | 0.27 | 93 | 1017.2 |
| 20260901181647 | 64 | 28 | 0.0 | 2.6 | 0.04 | 0.21 | 0.21 | 93 | 1017.2 |
| 20260901181130 | 64 | 33 | 0.0 | 2.6 | 0.02 | 0.18 | 0.18 | 93 | 1017.0 |
| 20260901180137 | 64 | 47 | 0.0 | 0.0 | 0.01 | 0.17 | 0.17 | 93 | 1016.7 |
| 20260901174648 | 64 | 47 | 0.0 | 1.7 | 0.02 | 0.17 | 0.17 | 93 | 1016.7 |
| 20260901173647 | 64 | 52 | 0.0 | 2.6 | 0.04 | 0.17 | 0.17 | 93 | 1016.5 |
| 20260901172649 | 65 | 85 | 0.9 | 3.5 | 0.04 | 0.17 | 0.17 | 92 | 1016.6 |
| 20260901171649 | 65 | 67 | 0.9 | 3.5 | 0.04 | 0.17 | 0.17 | 92 | 1016.6 |
| 20260901170646 | 65 | 85 | 0.9 | 3.5 | 0.03 | 0.16 | 0.16 | 93 | 1016.5 |
| 20260901165645 | 65 | 43 | 0.0 | 0.0 | 0.03 | 0.16 | 0.16 | 93 | 1016.8 |
| 20260901164645 | 65 | 43 | 0.0 | 0.0 | 0.02 | 0.15 | 0.15 | 93 | 1016.8 |
| 20260901163646 | 65 | 43 | 0.0 | 2.6 | 0.00 | 0.13 | 0.13 | 93 | 1017.0 |
| 20260901162648 | 65 | 40 | 0.0 | 0.0 | 0.00 | 0.13 | 0.13 | 93 | 1017.0 |
| 20260901161635 | 66 | 23 | 0.9 | 2.6 | 0.00 | 0.13 | 0.13 | 93 | 1017.0 |
| 20260901160636 | 66 | 39 | 0.0 | 0.0 | 0.00 | 0.13 | 0.13 | 93 | 1016.6 |
| 20260901155635 | 66 | 39 | 0.0 | 0.0 | 0.00 | 0.13 | 0.13 | 93 | 1016.6 |
| 20260901154637 | 66 | 37 | 0.0 | 1.7 | 0.00 | 0.13 | 0.13 | 93 | 1016.6 |
| 20260901153637 | 66 | 38 | 0.9 | 2.6 | 0.00 | 0.13 | 0.13 | 93 | 1016.6 |
| 20260901153605 | 66 | 75 | 0.0 | 1.7 | 0.00 | 0.13 | 0.13 | 93 | 1016.7 |
| 20260901152540 | 66 | 47 | 0.0 | 0.0 | 0.00 | 0.13 | 0.13 | 93 | 1016.7 |
| 20260901150630 | 66 | 42 | 0.9 | 2.6 | 0.00 | 0.13 | 0.13 | 93 | 1017.0 |
| 20260901145634 | 67 | 41 | 0.0 | 2.6 | 0.00 | 0.13 | 0.13 | 93 | 1016.6 |
| 20260901144630 | 67 | 170 | 0.0 | 0.9 | 0.00 | 0.13 | 0.13 | 93 | 1016.6 |
| 20260901143627 | 66 | 171 | 0.0 | 0.9 | 0.00 | 0.13 | 0.13 | 93 | 1016.7 |
| 20260901142627 | 66 | 173 | 0.0 | 1.7 | 0.00 | 0.13 | 0.13 | 93 | 1016.8 |
| 20260901141627 | 66 | 184 | 0.0 | 0.9 | 0.00 | 0.13 | 0.13 | 93 | 1016.8 |
| 20260901141555 | 66 | 185 | 0.0 | 0.9 | 0.00 | 0.13 | 0.13 | 93 | 1016.7 |
| 20260901135624 | 66 | 185 | 0.0 | 0.0 | 0.01 | 0.13 | 0.13 | 93 | 1016.9 |
| 20260901134625 | 65 | 185 | 0.0 | 0.9 | 0.02 | 0.13 | 0.13 | 93 | 1016.9 |
| 20260901133620 | 65 | 185 | 0.0 | 0.0 | 0.03 | 0.13 | 0.13 | 93 | 1017.0 |
| 20260901133054 | 65 | 185 | 0.0 | 0.0 | 0.06 | 0.13 | 0.13 | 92 | 1017.2 |
| 20260901131615 | 65 | 185 | 0.0 | 0.9 | 0.09 | 0.13 | 0.13 | 92 | 1017.2 |
| 20260901130613 | 65 | 185 | 0.0 | 0.9 | 0.10 | 0.13 | 0.13 | 92 | 1017.3 |
| 20260901125614 | 65 | 185 | 0.0 | 0.9 | 0.10 | 0.12 | 0.12 | 92 | 1017.0 |
| 20260901124613 | 65 | 185 | 0.0 | 0.9 | 0.09 | 0.11 | 0.11 | 92 | 1017.0 |
| 20260901123613 | 65 | 185 | 0.0 | 0.0 | 0.08 | 0.10 | 0.10 | 91 | 1017.2 |
| 20260901122611 | 65 | 185 | 0.0 | 0.0 | 0.05 | 0.07 | 0.07 | 91 | 1017.5 |
| 20260901121613 | 65 | 185 | 0.0 | 0.0 | 0.01 | 0.03 | 0.04 | 91 | 1017.5 |
| 20260901121051 | 65 | 185 | 0.0 | 0.0 | 0.01 | 0.03 | 0.03 | 91 | 1017.3 |
| 20260901115608 | 65 | 185 | 0.0 | 0.0 | 0.00 | 0.02 | 0.02 | 91 | 1017.3 |
| 20260901114607 | 65 | 185 | 0.0 | 0.0 | 0.00 | 0.02 | 0.02 | 91 | 1017.3 |
| 20260901113606 | 65 | 185 | 0.0 | 0.0 | 0.00 | 0.02 | 0.02 | 91 | 1017.4 |
| 20260901113049 | 65 | 185 | 0.0 | 0.9 | 0.01 | 0.02 | 0.02 | 91 | 1017.0 |
| 20260901112039 | 65 | 185 | 0.0 | 0.0 | 0.01 | 0.02 | 0.02 | 90 | 1017.0 |
| 20260901110559 | 65 | 185 | 0.0 | 0.0 | 0.01 | 0.02 | 0.02 | 90 | 1017.0 |
| 20260901110036 | 65 | 185 | 0.0 | 0.0 | 0.01 | 0.02 | 0.02 | 90 | 1016.9 |
| 20260901104600 | 65 | 185 | 0.0 | 0.0 | 0.02 | 0.02 | 0.02 | 90 | 1016.9 |
| 20260901103559 | 65 | 185 | 0.0 | 0.0 | 0.02 | 0.02 | 0.02 | 90 | 1016.5 |
| 20260901103039 | 65 | 185 | 0.0 | 0.0 | 0.01 | 0.01 | 0.01 | 89 | 1016.5 |
| 20260901101601 | 65 | 185 | 0.0 | 0.0 | 0.01 | 0.01 | 0.01 | 89 | 1016.5 |
| 20260901101040 | 65 | 185 | 0.0 | 0.0 | 0.01 | 0.01 | 0.01 | 88 | 1016.5 |
| 20260901095555 | 65 | 185 | 0.0 | 0.0 | 0.01 | 0.01 | 0.01 | 88 | 1016.5 |
| 20260901094556 | 66 | 185 | 0.0 | 0.0 | 0.00 | 0.00 | 0.00 | 87 | 1016.5 |
| 20260901093557 | 66 | 185 | 0.0 | 0.0 | 0.00 | 0.00 | 0.00 | 87 | 1016.5 |
| 20260901093030 | 66 | 185 | 0.0 | 2.6 | 0.00 | 0.00 | 0.00 | 85 | 1016.5 |
| 20260901091552 | 66 | 179 | 0.0 | 2.6 | 0.00 | 0.00 | 0.00 | 84 | 1016.5 |
| 20260901090551 | 66 | 180 | 0.0 | 0.0 | 0.00 | 0.00 | 0.00 | 84 | 1016.4 |
| 20260901085549 | 66 | 181 | 0.0 | 0.0 | 0.00 | 0.00 | 0.00 | 84 | 1016.4 |
| 20260901084549 | 66 | 181 | 0.0 | 0.0 | 0.00 | 0.00 | 0.00 | 84 | 1016.4 |
| 20260901083548 | 66 | 181 | 0.0 | 1.7 | 0.00 | 0.00 | 0.00 | 84 | 1016.3 |
| 20260901083042 | 66 | 181 | 0.0 | 2.6 | 0.00 | 0.00 | 0.00 | 84 | 1016.4 |
| 20260901081546 | 66 | 183 | 0.0 | 0.0 | 0.00 | 0.00 | 0.00 | 84 | 1016.4 |
| 20260901080548 | 66 | 183 | 0.0 | 0.0 | 0.00 | 0.00 | 0.00 | 84 | 1016.4 |
| 20260901075538 | 66 | 184 | 0.0 | 3.5 | 0.00 | 0.00 | 0.00 | 84 | 1016.5 |
| 20260901074540 | 66 | 189 | 0.0 | 0.0 | 0.00 | 0.00 | 0.00 | 84 | 1016.5 |
| 20260901073540 | 66 | 189 | 0.0 | 0.0 | 0.00 | 0.00 | 0.00 | 84 | 1016.7 |
| 20260901072539 | 67 | 189 | 0.0 | 0.0 | 0.00 | 0.00 | 0.00 | 84 | 1016.8 |
| 20260901072020 | 67 | 189 | 0.0 | 0.0 | 0.00 | 0.00 | 0.00 | 84 | 1016.8 |
| 20260901070537 | 67 | 189 | 0.0 | 0.0 | 0.00 | 0.00 | 0.00 | 84 | 1017.0 |
| 20260901070026 | 67 | 189 | 0.0 | 0.0 | 0.00 | 0.00 | 0.00 | 84 | 1017.0 |
| 20260901064536 | 67 | 189 | 0.0 | 0.0 | 0.00 | 0.00 | 0.00 | 84 | 1017.0 |
| 20260901063537 | 67 | 189 | 0.0 | 0.0 | 0.00 | 0.00 | 0.00 | 84 | 1017.0 |
| 20260901062537 | 67 | 189 | 0.0 | 0.0 | 0.00 | 0.00 | 0.00 | 84 | 1017.0 |
| 20260901061538 | 67 | 189 | 0.0 | 0.0 | 0.00 | 0.00 | 0.00 | 85 | 1017.0 |
| 20260901060537 | 67 | 189 | 0.0 | 0.0 | 0.00 | 0.00 | 0.00 | 85 | 1017.2 |
| 20260901055537 | 67 | 189 | 0.0 | 0.0 | 0.00 | 0.00 | 0.00 | 85 | 1017.2 |
| 20260901054536 | 67 | 189 | 0.0 | 0.0 | 0.00 | 0.00 | 0.00 | 85 | 1017.2 |
| 20260901054022 | 67 | 189 | 0.0 | 0.0 | 0.00 | 0.00 | 0.00 | 85 | 1017.2 |
| 20260901052537 | 67 | 188 | 0.0 | 0.0 | 0.00 | 0.00 | 0.00 | 85 | 1017.2 |
| 20260901051535 | 67 | 188 | 0.0 | 0.0 | 0.00 | 0.00 | 0.00 | 85 | 1017.2 |
| 20260901050536 | 67 | 188 | 0.0 | 0.0 | 0.00 | 0.00 | 0.00 | 85 | 1017.0 |
| 20260901045535 | 67 | 188 | 0.0 | 0.0 | 0.00 | 0.00 | 0.00 | 84 | 1017.0 |
| 20260901044535 | 67 | 188 | 0.0 | 0.0 | 0.00 | 0.00 | 0.00 | 85 | 1017.0 |
| 20260901044022 | 67 | 200 | 0.0 | 0.0 | 0.00 | 0.00 | 0.00 | 84 | 1017.0 |
| 20260901042536 | 67 | 208 | 0.0 | 0.0 | 0.00 | 0.00 | 0.00 | 84 | 1017.2 |
| 20260901041525 | 66 | 200 | 0.0 | 0.0 | 0.00 | 0.00 | 0.00 | 84 | 1017.2 |
| 20260901040525 | 66 | 200 | 0.0 | 0.0 | 0.00 | 0.00 | 0.00 | 83 | 1017.0 |
| 20260901035522 | 66 | 200 | 0.0 | 0.0 | 0.00 | 0.00 | 0.00 | 83 | 1017.2 |
| 20260901034522 | 66 | 200 | 0.0 | 0.0 | 0.00 | 0.00 | 0.00 | 84 | 1017.2 |
| 20260901033523 | 66 | 200 | 0.0 | 0.0 | 0.00 | 0.00 | 0.00 | 84 | 1017.3 |
| 20260901032522 | 66 | 200 | 0.0 | 0.0 | 0.00 | 0.00 | 0.00 | 84 | 1017.4 |
| 20260901031523 | 66 | 200 | 0.0 | 0.0 | 0.00 | 0.00 | 0.00 | 84 | 1017.4 |
| 20260901030520 | 66 | 200 | 0.0 | 0.0 | 0.00 | 0.00 | 0.00 | 84 | 1017.2 |
| 20260901025521 | 66 | 252 | 0.0 | 0.0 | 0.00 | 0.00 | 0.00 | 84 | 1017.0 |